Dewpoint
56 56 56 55 57 57 56 56 56 56 55 54 57 57 56 53 51 55 61 62 63 62 62 61 59 59 60 59 59 60 60 60 59
56 55 55 55 55 55 55 55 55 55 55 56 56 56 53 51 56 62 61 61 60 61 63 62 61 62 62 62 62 62 62 62 62
55 54 54 54 55 55 55 56 56 56 57 56 57 57 56 59 60 60 59 60 59 60 61 62 62 62 62 61 61 60 60 60 61
54 54 54 54 53 54 54 57 57 58 57 57 58 59 59 59 58 58 58 58 58 59 60 61 61 60 59 59 59 59 58 58 58
55 54 54 53 52 52 53 54 58 57 57 57 57 56 56 52 57 57 57 56 55 56 57 60 59 59 58 57 57 57 57 57 57
52 55 54 53 52 51 50 52 57 58 57 55 52 53 50 50 53 54 56 55 56 54 54 56 58 57 56 55 54 53 53 53 54
46 50 52 53 52 51 50 48 49 54 47 48 50 45 47 50 52 55 55 53 52 53 52 53 55 56 54 53 52 52 52 53 53
40 42 43 42 46 40 45 46 41 42 45 46 45 45 46 48 50 53 53 53 53 52 52 52 51 51 51 51 52 51 51 52 52
37 38 39 38 38 39 41 43 42 44 46 46 45 45 45 45 46 49 52 51 52 52 52 52 51 51 51 51 51 49 50 50 51
37 37 37 38 38 39 43 43 43 43 46 45 45 44 44 44 44 45 52 51 51 51 51 51 51 51 51 50 49 48 47 48 49
37 38 38 38 36 39 42 44 44 44 46 46 47 46 45 44 43 40 49 50 50 49 49 49 49 49 49 49 48 47 47 47 47
37 37 37 38 36 39 43 45 45 45 46 48 47 46 44 43 42 38 41 45 49 48 48 47 46 47 49 48 48 47 47 47 47
36 36 37 38 37 37 41 44 45 46 47 47 46 46 45 43 42 39 38 40 39 45 44 41 44 44 45 48 48 48 47 47 47
35 34 38 38 37 36 36 38 41 44 46 45 46 46 45 43 42 42 40 36 38 40 40 42 41 43 45 45 45 44 45 45 46
35 34 36 38 38 37 36 36 37 40 44 42 45 46 46 45 46 44 38 36 39 38 38 39 39 41 41 42 41 43 44 45 45
35 34 34 34 36 36 35 36 37 38 41 42 44 47 48 47 47 46 39 35 35 35 36 37 37 37 37 37 37 41 41 41 42
36 34 33 34 35 35 34 34 35 36 37 36 36 37 43 42 41 44 39 37 36 34 34 34 34 36 35 33 34 39 42 41 41
36 35 34 34 34 35 35 35 35 35 36 37 36 32 31 39 39 42 42 38 36 34 34 32 31 31 31 31 34 32 31 31 34
38 37 35 35 35 35 36 35 35 35 35 34 34 34 34 31 32 36 38 38 34 32 33 30 26 26 24 30 29 29 29 30 31
38 37 36 36 35 35 35 36 34 34 33 33 32 31 33 31 29 30 34 33 32 32 31 22 22 22 23 25 22 26 28 29 31
Wind_Speed
13 14 14 14 14 15 14 14 14 14 14 14 12 7 6 4 13 14 16 15 14 15 14 14 15 14 14 15 15 16 16 16 16
14 14 13 14 14 14 14 13 13 14 14 13 10 7 9 13 13 20 16 16 20 19 18 14 16 16 17 17 19 20 21 21 19
13 12 13 13 13 13 13 14 14 14 13 12 8 6 9 19 16 16 15 17 18 19 19 19 20 22 21 21 21 21 21 21 21
12 12 12 12 13 13 13 13 14 14 13 12 7 6 10 18 15 14 13 17 15 16 19 18 19 19 19 20 20 19 18 18 18
13 13 12 12 12 12 12 12 12 12 12 9 4 5 7 14 17 14 13 17 15 15 16 18 17 18 18 19 18 18 17 16 16
11 13 11 11 12 11 11 10 10 12 10 6 1 7 8 11 14 11 14 15 14 13 13 13 16 17 18 18 17 17 15 15 15
11 10 10 10 10 10 10 8 7 9 9 5 4 8 10 12 13 12 14 13 12 12 12 12 13 15 16 15 16 16 15 15 15
9 9 8 8 7 8 8 8 4 5 6 6 8 8 9 12 12 12 14 12 12 12 13 12 12 13 14 15 16 16 16 15 15
8 7 7 6 6 6 6 6 7 7 7 8 9 8 8 11 11 12 13 12 12 13 13 13 13 14 14 15 15 15 15 15 15
7 8 7 6 5 6 7 7 7 7 8 8 9 9 10 10 11 10 14 13 13 13 13 13 13 13 14 14 14 14 15 15 15
8 7 7 7 6 5 6 7 7 8 7 8 8 8 8 9 9 11 11 14 14 13 14 14 14 13 13 13 13 13 14 15 15
8 8 8 7 7 7 7 6 7 7 7 8 7 7 7 8 8 7 10 11 12 13 13 13 13 13 13 12 13 13 14 15 15
8 8 7 7 7 6 7 7 7 7 7 7 5 6 6 6 7 6 6 5 7 11 11 13 14 13 12 12 13 13 14 14 15
7 8 8 7 6 6 6 6 7 6 6 6 5 4 5 5 5 7 7 6 5 8 8 8 12 13 13 14 14 15 15 15 15
7 7 7 7 6 6 5 6 4 5 6 6 5 3 4 3 4 5 6 6 6 6 6 4 7 10 10 14 15 16 16 16 16
7 8 8 6 6 6 7 7 8 6 4 6 5 4 3 2 2 3 6 4 5 4 3 5 5 5 6 11 14 16 16 16 16
8 7 7 8 7 7 6 6 5 5 1 3 4 5 5 5 3 3 5 4 2 2 2 3 4 5 5 8 11 15 16 17 18
5 6 5 6 7 6 4 4 4 5 2 3 3 2 2 8 6 5 6 5 3 0 2 3 3 4 6 7 9 15 17 18 19
6 5 6 6 5 6 5 4 3 2 5 2 3 5 4 2 3 6 6 5 5 2 4 7 6 3 7 6 8 15 19 20 20
7 5 7 7 5 5 5 5 4 4 4 2 1 2 3 2 2 4 4 7 5 1 4 8 7 8 8 7 8 15 19 20 19
Wind_Direction
100 98 95 94 93 90 87 85 86 88 84 81 81 63 6 45 74 93 72 70 78 71 70 70 65 63 59 58 56 56 54 49 43
100 95 92 92 95 90 87 85 90 88 79 72 65 38 19 83 78 70 68 64 62 60 57 69 64 61 62 58 60 56 54 47 41
96 92 90 90 87 86 85 85 93 89 80 71 61 12 345 69 73 73 64 60 59 57 58 64 69 67 63 61 56 52 47 43 40
99 90 92 88 90 86 84 86 91 90 81 71 56 12 10 91 59 65 63 56 55 58 54 58 63 60 56 51 49 46 42 39 36
103 102 87 91 92 90 87 88 95 89 83 75 51 355 329 94 98 64 62 63 57 57 55 51 59 59 54 47 45 41 36 35 35
90 76 84 92 94 94 94 96 104 104 90 85 310 296 77 71 75 60 62 63 58 61 59 56 55 58 54 44 42 41 35 33 31
102 103 103 100 100 99 103 118 153 188 126 127 219 85 81 73 75 54 52 62 63 64 60 58 58 59 52 49 44 41 36 33 29
137 139 142 131 176 127 146 168 145 111 107 104 88 82 85 91 81 51 52 55 59 60 58 54 58 59 57 51 44 39 34 31 28
135 121 126 132 121 118 112 107 114 120 119 107 102 99 98 99 96 64 46 58 64 64 60 56 54 52 53 51 44 39 34 31 26
130 132 122 114 115 124 125 123 119 115 112 111 108 98 95 95 101 83 52 58 64 64 60 55 52 49 48 47 41 36 34 30 27
131 126 124 124 119 125 125 120 114 122 121 115 105 100 94 95 95 102 81 66 63 65 63 57 50 45 43 42 38 32 27 22 21
142 129 134 124 109 120 119 116 113 115 120 118 111 107 104 107 100 93 123 108 75 64 58 52 42 35 32 34 33 27 22 16 14
142 141 132 133 136 130 137 136 130 134 135 137 127 121 113 109 105 103 94 65 103 83 65 56 49 41 32 28 22 16 11 6 2
147 138 140 149 138 128 132 137 141 138 134 132 131 130 124 129 119 114 105 80 56 107 100 84 58 45 42 31 19 9 1 354 348
143 138 143 148 143 135 124 122 126 134 142 138 127 134 128 148 147 129 114 101 95 77 51 55 69 61 35 24 13 5 356 350 343
154 150 148 152 154 142 139 127 130 120 145 142 148 154 161 170 188 171 136 129 92 71 66 53 19 10 21 21 12 6 359 353 348
164 163 158 149 140 150 164 158 134 108 155 258 189 178 182 187 196 202 168 165 139 71 41 26 16 10 4 19 22 10 357 348 341
167 150 163 160 138 135 153 164 194 135 100 41 308 192 234 150 163 199 201 187 226 78 342 318 1 1 3 17 25 8 353 342 333
156 145 165 154 126 136 139 122 117 178 137 123 57 40 12 281 177 182 204 210 250 331 318 341 333 12 6 8 35 360 343 335 328
158 162 160 141 110 123 125 114 99 63 119 56 130 63 34 15 318 298 175 191 240 314 344 319 327 22 345 351 4 343 335 329 327